GFSGL_con_mlcape_162.txt.gz
CAPE
1052 997 1105 1057 1115 1317 1167 1316 1272 1443 1655 1776 1643 1333 1280 1575 1807 2046 1602 1464 1679 1445 1424 1283 1173 1468 972 570 650 686 686 576 381 401 370 734 1195 1484 1301 1594 761 1083 0
874 1016 1163 1130 1068 984 1046 999 1106 1315 1516 1660 1146 918 1167 1265 1421 1546 1196 1022 1363 1227 1176 1258 1195 991 1121 1161 819 813 727 715 625 539 722 552 868 1315 1476 1419 1069 450 550
996 1008 1087 1155 1137 1058 925 1095 1082 1114 1317 1328 1207 907 1143 1181 1034 1450 1690 1029 1118 1074 1069 1163 992 1017 978 996 1151 824 611 687 610 667 769 426 663 892 1218 1327 1079 732 350
1043 1049 1085 1163 1114 1142 1093 1097 1114 1170 1153 1248 1311 1397 1422 1189 1065 872 1353 1208 1117 1051 1109 1064 1029 858 1015 1116 1029 996 950 855 666 737 521 644 838 541 830 683 607 899 451
1093 1245 1321 1363 1348 1342 1252 1191 1276 1230 1112 1047 1098 1243 1466 1501 1265 1510 1237 1172 1095 982 823 932 927 880 1051 840 880 971 892 873 695 758 523 303 442 1025 864 779 628 482 541
796 741 977 1337 1667 1572 1520 1515 1491 1465 1227 894 894 1044 1221 1242 785 593 848 696 762 721 880 993 1048 1123 1020 434 229 204 232 423 211 130 636 730 823 648 561 445 437 443 335
928 1000 1079 1141 1380 1253 1305 1432 1553 1687 1371 1194 922 879 1111 1239 766 541 403 711 659 478 776 1034 1104 1160 755 1009 267 58 30 15 46 419 605 625 438 47 0 6 97 118 139
951 1072 1184 1262 1242 1147 1266 1313 1554 1747 1636 1417 1251 1102 926 965 839 696 361 567 823 665 974 1175 1207 1342 963 724 628 588 101 12 52 141 120 0 0 0 0 0 2 7 2
850 960 1211 1326 1367 1314 1251 1277 1322 1519 1604 1603 1471 1337 1190 1038 345 371 298 410 546 968 1285 1095 972 820 21 33 350 348 14 0 0 0 0 0 0 0 0 0 0 23 37
942 866 1086 1240 1227 1308 1065 1194 1331 1494 1522 1582 1763 1348 1182 1240 161 108 145 657 768 980 168 1 0 0 0 0 34 149 52 0 0 0 0 0 0 0 0 0 0 0 4
746 752 892 858 1128 1052 813 1019 1126 1428 1392 1359 1395 1490 1465 1097 97 10 11 334 446 144 1 2 0 0 0 0 0 138 98 0 0 0 0 0 0 0 0 0 0 0 0
676 544 241 260 333 362 595 636 863 1226 1132 1104 723 263 132 37 18 0 0 14 49 17 2 4 0 0 0 0 0 0 0 0 0 0 0 0 0 0 0 0 0 0 0
508 504 107 12 7 8 9 2 8 20 71 35 18 0 0 1 1 0 0 0 1 1 4 0 0 0 0 0 0 0 0 0 0 0 0 0 0 0 0 0 0 0 0
528 151 7 0 0 0 0 0 3 0 0 0 0 0 0 0 0 1 2 3 1 1 1 1 0 0 0 0 0 0 0 0 0 0 0 0 0 0 0 0 0 0 0
131 19 2 4 0 0 0 0 0 0 0 1 0 1 1 1 2 2 3 3 3 0 0 0 0 0 0 0 0 0 0 0 0 0 0 0 0 0 0 0 0 0 0
10 1 3 1 3 2 1 0 2 0 0 0 0 0 0 1 1 0 0 0 0 0 0 0 0 0 0 0 0 0 0 0 0 0 0 0 0 0 0 0 0 0 0
0 2 3 5 4 4 3 1 0 1 0 0 0 0 0 0 0 0 0 0 0 0 0 0 0 0 0 0 0 0 0 0 0 0 0 0 0 0 0 0 0 0 0
6 2 2 4 4 2 3 3 3 2 1 0 0 0 0 0 0 0 0 0 0 0 0 0 0 0 0 0 0 0 0 0 0 0 0 0 0 0 0 0 0 0 0
4 3 1 7 9 2 8 4 0 0 0 0 0 0 0 0 0 0 0 0 0 0 0 0 0 0 0 0 0 0 0 0 0 0 0 0 0 0 0 0 0 0 0
4 1 3 2 1 0 6 3 1 0 0 0 0 0 0 0 0 0 0 0 0 0 0 0 0 0 0 0 0 0 0 0 0 0 0 0 0 0 0 0 0 0 0
4 1 0 5 3 0 0 0 0 0 0 0 0 0 0 0 0 0 0 0 0 0 0 0 0 0 0 0 0 0 0 0 0 0 0 0 0 0 0 0 0 0 0
3 1 0 0 0 0 4 0 0 0 0 0 0 0 0 0 0 0 0 0 0 0 0 0 0 0 0 0 0 0 0 0 0 0 0 0 0 0 0 0 0 0 0
1 3 0 0 0 0 0 0 0 0 0 0 0 0 0 0 0 0 0 0 0 0 0 0 0 3 10 5 0 0 5 13 1 0 0 0 0 0 0 0 0 0 1
1 0 0 0 0 0 0 0 0 0 0 0 0 0 0 0 0 0 0 0 0 0 0 0 2 25 35 17 9 4 9 8 0 0 0 0 0 0 0 0 0 0 1
30 1 0 0 0 0 0 0 0 0 0 0 0 0 0 0 0 0 0 0 0 0 0 0 0 2 17 27 28 9 0 0 1 0 0 0 0 0 0 0 0 1 0
0 0 0 0 0 0 0 0 0 0 0 0 0 0 0 0 0 0 0 0 0 0 0 0 0 0 0 21 42 14 0 0 0 0 0 0 0 0 0 0 0 8 14

GFSGL_con_mlcape_165.txt.gz
CAPE
1522 1419 1379 1314 1336 1430 911 1370 1320 1406 1485 1279 1768 1809 1516 1294 1381 1667 1717 1735 1904 1428 1130 901 751 998 621 717 564 907 646 284 303 309 380 714 1374 1344 962 1459 904 967 0
1452 1412 1532 1509 1362 1370 1257 938 1159 1359 1659 1921 1471 1767 1475 1375 1339 1705 1645 1111 1381 1312 1227 957 807 619 1209 1322 979 833 463 384 389 629 670 512 864 501 1331 1388 1115 489 29
1375 1399 1447 1666 1531 1397 1366 1467 1049 1355 1424 1534 1814 1540 1471 1544 1628 1459 1655 1437 1222 1226 810 813 996 812 847 907 1335 908 643 1013 985 486 630 663 734 1060 776 661 737 779 137
1330 1296 1568 1631 1713 1582 1543 1676 1605 1633 1517 1537 1464 1669 1347 1301 1560 1332 1659 1538 1454 1395 911 895 1091 866 761 1149 1272 1007 1399 1229 692 719 655 582 351 480 617 655 522 359 10
1257 1468 1753 1928 1868 1979 1770 1724 1712 1644 1623 1774 1749 1574 1671 1402 1215 1483 1331 1430 1631 1324 1219 1023 847 840 824 1066 781 695 1230 884 729 889 335 323 265 214 108 394 673 977 786
1450 1686 1868 1514 1877 2020 1908 1836 1633 1541 1505 1536 1573 1469 1597 1202 906 1061 1337 1437 1323 1348 1095 1012 1178 1177 1102 919 478 247 394 415 990 605 249 118 159 522 555 640 449 378 289
1065 1179 1478 1592 1630 2182 2306 2184 2062 1751 1661 1466 1619 1557 1567 1791 661 704 571 905 984 830 921 1004 1190 974 1011 1083 431 108 49 17 48 180 206 503 561 157 27 61 95 82 132
1211 1401 1543 1702 1773 2004 2232 2243 2219 2145 2178 1860 1662 1643 1466 1421 1000 692 524 781 791 994 935 833 1127 1225 1168 1206 1157 677 587 45 7 181 303 8 0 0 0 0 89 124 8
1225 1333 1341 1513 1673 1921 2045 1949 2053 1889 2139 1981 1841 1809 1632 1662 809 719 770 947 760 774 1047 1004 1363 1409 361 223 783 659 370 0 0 0 0 0 0 0 0 1 31 56 35
743 1170 1270 1286 1402 1551 1810 1653 1613 1511 1607 1654 1765 1890 1750 1796 777 461 690 820 472 287 994 277 0 56 0 0 191 464 368 7 0 0 0 0 0 0 0 0 0 0 0
685 830 1379 1011 1073 1064 1367 1460 1433 1322 1384 1491 1450 1612 1722 1662 900 191 281 996 531 809 469 80 0 0 0 0 0 57 213 0 0 0 0 0 0 0 0 0 0 0 0
868 988 999 1056 735 834 1105 1318 1073 1015 1125 1290 1403 1435 1645 1417 842 21 50 56 729 768 45 1 0 0 0 0 0 0 0 0 0 0 0 0 0 0 0 0 0 0 0
1074 722 902 323 157 62 80 231 210 230 359 677 1141 908 512 100 14 0 0 0 13 4 4 0 0 0 0 0 0 0 0 0 0 2 0 0 0 0 0 0 0 0 0
686 733 474 120 0 0 0 0 0 2 2 0 20 49 0 0 0 1 0 1 1 1 2 1 0 0 0 1 0 0 0 0 0 0 0 0 0 0 0 0 0 0 0
626 382 83 0 1 0 0 1 0 0 0 2 2 0 0 0 0 2 1 2 3 2 1 1 0 0 0 0 0 0 0 0 0 0 0 0 0 0 0 0 0 0 0
234 61 2 1 2 2 1 2 4 0 0 0 0 0 0 0 1 1 0 2 1 2 3 3 2 0 0 0 0 0 0 0 0 0 0 0 0 0 0 0 0 0 0
13 3 2 1 3 1 3 2 0 3 0 0 0 0 0 0 0 0 0 0 0 0 0 0 0 0 0 0 0 0 0 0 0 0 0 0 0 0 0 0 0 0 0
2 1 6 2 4 1 5 4 4 1 1 1 0 0 0 0 0 0 0 0 0 0 0 0 0 0 0 0 0 0 0 0 0 0 0 0 0 0 0 0 0 0 0
1 3 4 2 2 2 3 2 1 1 1 1 0 0 0 0 0 0 0 0 0 0 0 0 0 0 0 0 0 0 0 0 0 0 0 0 0 0 0 0 0 0 0
3 4 6 0 2 22 11 3 1 1 1 2 2 1 0 0 0 0 0 0 0 0 0 0 0 0 0 0 0 0 0 0 0 0 0 0 0 0 0 0 0 0 0
2 0 8 90 79 56 27 14 9 7 0 0 0 0 0 0 0 0 0 0 0 0 0 0 0 0 0 0 0 0 0 0 0 0 0 0 0 0 0 0 0 0 0
1 0 26 8 0 0 0 0 0 0 0 0 0 0 0 0 0 0 0 0 0 0 0 0 0 0 0 0 0 1 0 0 0 0 0 0 0 0 0 0 0 0 0
1 1 0 2 1 0 0 0 0 0 0 0 0 0 0 0 0 0 0 0 0 0 0 1 5 10 13 13 11 12 11 7 0 0 0 2 1 1 1 1 1 0 4
1 0 0 0 0 0 0 0 0 0 0 0 0 0 0 0 0 0 0 0 0 1 1 3 14 19 26 22 18 15 15 8 2 0 0 0 2 0 1 0 1 0 3
0 0 0 0 0 1 0 0 0 0 0 0 0 0 0 0 0 0 1 2 1 4 10 15 17 19 21 35 23 21 0 0 0 0 0 0 0 0 0 0 0 0 0
4 10 0 5 19 8 1 0 0 1 3 2 2 3 4 7 9 10 7 6 7 12 8 6 4 0 4 8 19 2 0 0 0 0 0 5 2 3 1 0 0 1 2

GFSGL_con_mlcape_168.txt.gz
CAPE
1530 1442 1218 1337 1400 1268 1610 1451 1489 301 0 48 541 1134 1167 1459 1546 1452 1230 1147 1104 1184 1300 1131 661 806 1034 819 650 731 578 509 387 575 835 807 948 1447 517 515 58 3 0
1395 1253 1375 943 1499 1618 1339 1069 1437 556 0 107 1215 1530 1559 1445 1502 1412 1328 1171 1019 1019 1142 1050 868 570 902 907 950 875 944 1073 503 463 641 728 1170 569 80 372 299 95 0
1274 1069 1372 1518 1622 1223 1396 1310 1673 1334 1170 1287 1664 1479 1443 1315 1573 1334 1256 1179 1616 1072 352 743 993 774 770 600 678 1123 653 899 753 871 561 579 539 414 316 474 490 127 13
1202 1136 1510 1717 1820 1640 1691 1379 1482 1481 1199 1156 1442 1680 1704 1942 1739 1424 1329 1450 1654 1455 1229 947 897 625 468 753 787 1011 621 868 822 703 611 450 214 228 215 77 1 95 1
1033 1141 1512 1767 1861 1562 1590 1668 1436 1336 1351 1371 1377 1550 1616 1785 1483 1459 1519 1334 1135 909 1151 1446 1209 1110 870 748 838 837 615 587 728 416 259 105 81 73 4 100 251 394 193
486 357 506 20 816 1300 1286 1609 1452 1508 1548 1658 1592 1708 1837 1782 1367 963 1225 1289 1034 1008 625 805 1401 1039 854 735 634 480 233 270 440 316 505 10 103 145 280 349 166 152 82
425 301 252 1065 1139 1131 1202 1658 1761 1756 1460 1939 1815 1747 1641 1710 1219 1039 732 1375 1020 955 895 1037 1049 1058 756 742 562 309 88 44 76 176 50 245 268 56 58 26 21 39 33
72 13 96 1021 1596 1563 1526 1845 2041 2197 2046 1972 1943 1804 1662 1661 1607 903 766 1292 1129 982 1039 1065 976 929 1059 1242 1055 650 327 12 0 60 119 0 0 0 9 22 29 42 5
783 281 98 423 1052 1455 1445 1676 2122 1853 1860 1912 2292 2002 1604 1876 1551 1128 717 759 829 685 910 1028 920 917 550 424 683 762 172 0 0 0 0 0 0 0 0 1 0 3 24
789 993 1170 1200 1175 1104 1257 1392 1685 1752 1793 1623 1688 1968 1976 1806 1434 752 557 1012 1037 844 1034 277 127 400 54 84 344 541 303 0 0 0 0 0 0 0 0 0 0 0 0
592 782 963 878 910 1062 1171 1123 1223 1582 1621 1687 1624 1593 1503 1469 1401 452 308 933 892 615 502 490 0 0 0 0 0 94 259 0 0 0 0 0 0 0 0 0 0 0 0
571 656 617 841 840 820 968 1121 1317 1504 1467 1437 1444 1368 1195 989 844 226 26 24 465 660 481 39 0 0 0 0 0 0 0 0 0 0 0 0 0 0 0 0 0 0 0
582 784 670 771 636 381 337 460 700 471 455 410 638 921 847 264 85 0 0 9 185 102 2 0 0 0 0 0 0 0 0 0 0 0 0 0 0 0 0 0 1 0 0
740 734 698 647 189 8 1 0 0 1 129 24 12 8 1 2 1 1 1 0 0 1 3 2 0 0 0 1 2 0 0 0 0 0 0 0 0 0 0 0 0 0 0
559 606 549 240 63 0 0 0 0 0 0 0 5 0 0 0 1 1 0 0 2 3 2 2 1 1 0 0 0 0 0 0 0 0 0 0 0 0 0 0 0 0 0
582 526 140 26 1 1 1 1 2 1 0 0 0 0 0 0 1 1 2 3 3 2 4 2 2 1 0 0 0 0 0 0 0 0 0 0 0 0 0 0 0 0 0
264 137 6 0 0 2 2 3 0 2 1 0 0 0 0 0 0 0 0 0 0 1 1 0 0 0 0 0 0 0 0 0 0 0 0 0 0 0 0 0 0 0 0
1 0 1 0 1 4 3 2 3 2 0 0 1 0 0 0 0 0 0 0 2 2 0 0 0 0 0 0 0 0 0 0 0 0 0 0 0 0 0 0 0 0 0
3 1 1 0 3 1 3 4 4 3 2 2 0 0 0 0 0 0 0 0 0 0 0 0 0 0 0 0 0 0 0 0 0 0 0 0 0 0 0 0 0 0 0
1 1 0 1 0 0 1 1 3 3 3 3 0 1 0 0 0 0 0 0 0 0 0 0 0 0 0 0 0 0 0 0 0 0 0 0 0 0 0 0 0 0 0
4 5 7 3 11 0 0 0 1 3 3 1 0 0 0 0 0 0 0 0 0 0 0 0 0 0 0 0 0 0 0 0 0 0 0 0 0 0 0 0 0 0 0
4 6 13 23 21 15 4 0 0 0 0 0 0 0 0 0 0 0 0 0 0 0 0 0 0 0 0 0 0 0 0 0 0 0 0 0 0 0 0 0 0 0 2
0 0 1 0 0 0 1 0 0 0 0 0 0 0 0 0 7 0 7 8 0 0 0 0 0 0 0 0 5 3 3 0 0 0 0 0 0 0 0 0 1 2 0
1 1 0 0 0 0 0 0 0 1 0 0 0 0 0 0 0 0 0 0 0 2 0 9 12 12 12 9 4 0 6 0 0 0 0 0 0 0 0 0 0 0 0
0 1 0 0 0 0 0 0 0 0 0 0 0 0 3 2 1 4 0 2 8 12 6 4 15 20 32 22 22 10 0 0 0 0 0 0 0 0 0 0 0 0 2
0 0 0 0 0 0 0 2 0 0 0 0 0 0 0 1 0 8 9 14 10 14 12 6 15 10 11 12 20 0 0 0 0 0 0 0 0 0 1 0 0 0 4

GFSGL_con_mlcape_171.txt.gz
CAPE
958 924 994 919 1051 1060 1136 909 703 283 10 12 0 37 831 990 772 896 859 979 832 777 645 875 802 655 826 627 567 781 1004 823 294 452 499 187 476 448 110 92 1 0 19
553 913 791 804 938 1189 832 982 444 247 1 0 70 121 319 1122 1353 1225 943 789 1192 407 612 1070 758 1053 756 390 745 652 686 706 676 323 439 504 422 76 69 0 123 47 0
9 206 933 922 925 996 904 697 1216 662 8 0 507 224 636 1183 1112 1395 1109 729 1034 1141 907 486 55 691 566 545 785 430 667 614 570 444 396 299 414 359 326 396 186 0 1
2 1 398 1065 903 1016 1107 1171 892 939 774 254 458 942 970 1072 952 1066 1362 1022 782 814 944 770 509 920 453 298 616 597 637 475 533 685 466 222 161 225 127 48 21 1 2
4 1 59 690 1040 1301 1191 1046 1086 898 967 970 830 746 1030 1073 1022 1521 1325 1088 972 1223 892 730 930 1262 1112 840 832 671 676 475 326 280 185 96 59 35 0 31 32 143 2
198 71 60 96 30 6 152 1050 1087 1102 912 1071 933 978 1024 1213 1073 1134 1265 1166 1025 1228 780 649 770 1045 843 676 555 489 511 364 207 216 272 133 23 91 163 215 106 53 50
294 160 6 0 0 0 0 21 835 969 1126 1068 1061 1183 1126 1122 1323 1203 916 947 1184 976 887 667 530 862 902 732 475 310 180 63 96 253 145 67 93 10 36 5 9 14 13
291 76 12 0 0 0 14 36 791 973 1023 1027 1225 1464 1431 1337 1313 1242 1067 842 959 939 976 681 560 757 663 811 568 459 61 0 0 24 36 0 0 0 0 0 7 1 0
788 616 99 0 0 47 286 489 920 1238 1223 1213 1459 1386 1223 1593 1445 1192 1039 749 767 945 988 791 933 844 570 429 418 311 0 0 0 0 0 0 0 0 0 0 1 16 2
540 505 531 490 693 664 511 767 1305 1304 1399 1759 1695 1487 1419 1510 1596 1213 612 671 469 700 752 268 235 469 310 348 375 165 0 0 0 0 0 0 0 0 0 0 0 0 0
251 166 410 703 946 704 824 930 995 1002 1007 1171 1373 1500 1513 1546 1446 1031 458 597 501 458 351 161 25 12 8 49 157 174 49 0 0 0 0 0 0 0 0 0 0 0 0
235 42 295 452 642 747 679 760 737 881 1041 960 1416 1368 1451 1432 1313 977 419 151 284 352 210 46 0 0 0 0 0 0 0 0 0 0 0 0 0 0 0 0 0 0 0
13 95 525 449 573 417 304 178 221 409 346 280 216 195 326 279 120 24 10 30 4 45 0 0 0 0 0 0 0 0 0 0 0 0 0 0 0 0 0 0 0 0 0
0 48 363 415 326 89 0 0 0 0 4 37 9 2 0 0 0 2 1 0 0 0 2 4 1 0 0 0 0 0 0 0 0 0 0 0 0 0 0 0 0 0 0
0 53 365 255 135 0 0 0 0 1 0 0 0 2 0 0 0 0 1 0 0 2 2 3 3 3 3 3 2 0 0 0 0 0 0 0 0 0 0 0 0 0 0
0 7 146 43 1 0 0 0 1 0 0 0 0 0 0 0 0 1 1 3 4 3 4 3 3 2 2 0 0 0 0 0 0 0 0 0 0 0 0 0 0 0 0
0 0 36 0 4 0 0 1 1 1 1 0 0 0 0 0 0 0 2 0 0 1 4 3 3 2 0 0 0 0 0 0 0 0 0 0 0 0 0 0 0 0 0
0 1 1 0 0 0 2 2 1 0 0 0 2 0 0 0 0 0 0 0 1 1 1 2 2 0 0 0 0 0 0 0 0 0 0 0 0 0 0 0 0 0 0
0 1 1 0 0 1 1 2 3 2 2 1 0 0 0 0 0 0 0 2 0 0 0 0 0 0 0 0 0 0 0 0 0 0 0 0 0 0 0 0 0 0 0
0 2 0 0 1 2 2 2 3 4 3 2 1 0 0 0 0 0 0 0 0 0 0 0 0 0 0 0 0 0 0 0 0 0 0 0 0 0 0 0 0 0 0
0 1 1 1 1 1 2 1 1 1 0 2 1 0 0 0 0 0 0 0 0 0 0 0 0 0 0 0 0 0 0 0 0 0 0 0 0 0 0 0 0 0 0
2 2 3 2 0 1 1 0 1 1 0 0 0 0 0 0 0 0 0 0 0 0 0 0 0 0 0 0 0 0 0 0 0 0 0 0 0 0 0 0 0 0 0
8 3 12 5 0 0 0 0 0 0 0 0 0 0 0 0 0 0 0 0 0 0 0 0 0 0 0 0 0 0 0 0 0 0 0 0 0 0 0 0 0 0 0
5 1 3 1 1 0 0 0 0 0 0 0 0 0 0 0 0 0 2 0 0 0 0 0 0 0 0 0 0 0 0 0 0 0 0 0 0 0 0 0 0 0 0
1 2 2 2 2 0 0 0 0 0 0 0 0 0 0 0 0 0 0 0 0 0 0 2 13 6 3 6 2 3 0 0 0 0 0 0 0 0 0 0 0 0 0
0 0 0 0 0 0 0 0 0 0 3 0 0 0 0 0 0 0 0 0 2 7 5 15 19 13 17 15 8 5 0 0 0 0 0 0 0 0 0 0 0 0 0

GFSGL_con_mlcape_174.txt.gz
CAPE
725 839 1122 845 361 405 969 953 802 637 352 159 235 339 461 759 720 488 1178 1027 1088 810 961 739 680 715 505 602 504 467 514 530 220 300 229 183 44 237 287 84 55 0 0
864 648 436 1064 942 652 469 959 751 590 407 60 0 95 35 464 822 787 813 962 668 672 469 606 538 840 821 392 349 559 347 400 228 165 319 313 369 186 58 44 0 1 3
451 467 436 549 704 793 728 653 803 504 322 290 20 7 43 223 821 1148 1127 953 913 784 788 420 390 247 424 676 597 469 369 557 445 159 94 261 376 162 118 75 72 2 5
0 10 92 149 560 798 749 853 821 452 417 224 24 24 173 149 717 1040 1165 1156 868 745 859 804 534 209 534 618 385 507 503 413 378 399 306 207 175 210 221 104 13 2 2
26 1 2 25 57 412 481 512 779 753 554 352 94 60 342 605 651 720 934 828 972 814 779 900 900 661 722 741 606 544 545 484 402 341 207 101 72 148 46 6 0 0 3
0 0 7 28 123 186 125 128 238 391 781 794 602 604 595 802 688 743 862 974 1127 933 862 893 907 670 683 710 723 574 637 494 400 185 65 60 21 12 16 41 23 0 0
146 60 152 25 1 206 153 19 83 151 91 716 914 876 923 903 907 907 855 856 1002 1039 1043 926 882 670 703 590 387 459 283 232 274 211 94 128 58 57 50 23 30 20 27
272 222 205 129 2 4 0 3 1 0 0 94 898 931 876 831 821 821 816 804 838 828 1022 1021 986 655 557 510 375 210 55 0 7 70 148 14 9 0 0 0 4 0 0
317 228 143 27 0 0 0 0 0 206 266 533 855 823 892 925 948 915 888 791 855 752 829 928 847 787 451 324 334 137 0 0 0 0 0 0 0 0 0 2 1 0 0
601 486 301 187 5 1 4 4 51 86 237 675 722 891 1107 1218 1165 1063 796 648 560 534 606 651 558 744 441 227 397 95 12 0 0 0 0 0 0 0 0 0 0 5 0
122 125 120 401 431 420 408 467 569 603 637 652 555 584 909 1176 1334 1170 894 824 700 593 500 346 194 179 265 202 274 105 51 0 0 0 0 0 0 0 0 0 0 0 0
212 64 8 146 293 473 461 519 519 575 572 557 669 824 991 1165 1092 1105 1011 852 967 856 591 298 17 0 13 49 90 22 0 0 0 0 0 0 0 0 0 0 0 0 0
43 0 38 239 338 359 371 260 317 268 324 253 213 176 145 74 46 31 115 152 133 616 359 45 0 0 0 0 0 0 0 0 0 0 0 0 0 0 0 0 0 0 0
0 0 2 191 175 7 0 0 0 0 0 0 65 28 0 0 0 0 0 0 0 1 0 0 0 0 0 0 1 2 1 0 0 0 0 0 0 0 0 0 0 0 0
0 0 0 91 86 0 0 0 0 0 0 0 1 0 1 0 0 0 0 0 2 1 3 4 3 1 1 4 4 2 1 1 0 0 0 0 0 0 0 0 0 0 0
0 0 0 84 24 1 0 0 1 0 0 0 0 0 0 0 0 0 1 1 2 4 5 5 5 5 5 4 3 3 3 0 0 0 0 0 0 0 0 0 0 0 0
0 0 0 1 4 0 0 0 0 0 0 0 0 0 0 0 0 0 0 1 0 0 2 1 1 2 1 1 1 1 0 0 0 0 0 0 0 0 0 0 0 0 0
0 0 1 5 0 0 0 1 1 0 0 0 1 0 0 0 0 0 0 0 0 2 3 3 2 0 0 0 0 0 0 0 0 0 0 0 0 0 0 0 0 0 0
0 0 1 0 0 0 1 1 1 1 1 2 1 0 0 0 0 0 0 2 3 2 2 0 0 0 0 0 0 0 0 0 0 0 0 0 0 0 0 0 0 0 0
0 2 0 0 1 1 2 2 4 4 3 2 1 1 0 0 0 0 1 1 1 0 0 0 0 0 0 0 0 0 0 0 0 0 0 0 0 0 0 0 0 0 0
0 2 0 1 1 1 2 3 3 2 2 1 1 0 0 0 0 0 0 0 0 0 0 0 0 0 0 0 0 0 0 0 0 0 0 0 0 0 0 0 0 0 0
2 6 1 1 1 1 2 1 0 1 1 1 0 0 0 0 0 0 0 0 0 0 0 0 0 0 0 0 0 0 0 0 0 0 0 0 0 0 0 0 0 0 0
3 19 3 2 1 1 0 0 0 0 0 0 0 0 0 0 0 0 0 0 0 0 0 0 0 0 0 0 0 0 0 0 0 0 0 0 0 0 0 0 0 0 0
5 27 42 3 1 2 1 0 0 0 0 0 0 0 0 0 0 0 0 0 0 0 0 0 0 0 0 0 0 0 0 0 0 0 0 0 0 0 0 0 0 0 0
13 5 14 0 3 2 1 0 0 0 0 0 0 0 0 0 0 0 0 0 0 0 0 0 0 0 0 0 0 0 0 0 0 0 0 0 0 0 0 0 0 0 0
2 0 1 0 0 1 0 7 0 0 0 0 0 0 0 0 0 0 0 0 0 0 0 0 0 0 2 4 4 6 0 0 0 0 0 0 0 0 0 0 0 0 0

GFSGL_con_mlcape_180.txt.gz
CAPE
418 370 393 380 459 422 406 416 257 141 406 422 530 592 605 639 732 659 553 506 565 683 563 611 514 364 339 260 446 432 366 171 189 188 185 222 250 160 368 152 35 0 0
544 660 643 705 637 551 476 563 581 516 585 358 197 145 247 390 540 525 454 447 537 684 824 620 599 565 462 442 393 407 416 315 144 66 148 264 176 150 64 26 18 1 0
82 121 363 654 647 687 575 560 497 455 408 597 416 231 84 24 143 386 451 332 353 587 690 507 403 381 314 305 404 349 407 401 313 180 109 152 258 142 90 24 9 3 2
92 122 142 252 331 538 636 591 387 527 498 240 396 293 100 78 7 29 147 141 344 514 764 757 708 499 457 262 162 366 451 467 472 396 277 272 233 261 197 77 17 2 2
17 25 46 105 171 202 176 197 316 435 564 579 389 302 247 114 58 0 0 108 514 567 716 755 816 758 530 419 269 401 371 458 478 466 396 311 235 239 272 154 82 0 1
149 138 1 0 15 0 14 0 33 129 291 464 456 349 278 139 102 60 35 66 353 660 608 637 702 713 678 483 443 483 456 417 373 469 426 331 273 160 107 107 44 3 1
256 254 251 194 109 1 0 1 14 21 8 68 332 444 445 289 225 220 99 200 306 435 484 472 524 672 794 833 691 492 346 360 341 461 417 416 277 147 59 54 32 0 0
387 350 267 221 140 0 0 4 24 23 17 4 12 3 0 12 60 97 277 298 387 521 624 609 706 747 746 783 747 694 481 393 234 363 454 384 257 138 84 57 44 0 0
280 248 146 69 61 0 0 0 0 5 0 0 10 0 0 28 48 177 188 284 335 402 473 588 725 724 708 517 667 591 449 320 0 0 1 12 4 5 4 0 2 0 1
164 28 54 67 82 77 10 0 0 0 0 0 7 33 78 173 273 285 220 245 362 492 559 551 503 665 663 451 721 668 579 338 11 0 0 0 0 0 0 0 0 21 0
193 106 117 125 55 3 0 0 17 33 38 50 104 79 122 152 434 314 212 288 416 497 581 528 551 424 418 345 332 649 520 206 0 0 0 0 0 0 0 0 0 0 0
431 288 203 50 10 12 14 47 173 239 230 194 145 157 252 339 237 106 83 66 103 193 322 434 401 365 225 66 10 160 15 1 0 0 0 0 0 0 0 0 0 0 0
165 187 104 3 2 35 26 83 39 5 11 43 103 154 138 45 19 4 2 0 0 0 2 39 53 70 47 0 0 2 0 2 0 1 4 4 1 0 1 2 1 0 0
204 105 0 0 3 2 0 0 0 2 2 0 0 1 0 1 2 1 8 0 0 0 0 0 0 0 0 2 0 3 1 1 1 3 4 4 4 4 4 2 0 0 0
84 0 0 0 0 0 0 0 0 0 0 0 0 0 0 0 0 0 0 0 0 0 0 0 0 0 0 0 2 2 2 3 4 5 3 4 4 4 2 0 0 0 0
0 0 0 0 0 0 0 0 1 0 0 0 0 0 0 0 0 0 0 0 0 0 0 0 0 1 3 3 2 3 2 3 3 3 3 3 1 0 0 0 0 0 0
0 0 0 0 0 0 0 0 0 0 0 0 0 0 0 0 0 0 0 0 0 1 2 2 2 1 1 1 0 1 3 0 0 0 0 0 0 0 0 0 0 0 0
0 0 0 0 0 1 2 0 0 0 0 0 0 0 0 0 0 0 0 0 1 1 0 0 0 1 2 3 3 3 3 2 1 0 0 0 0 0 0 0 0 0 0
0 0 0 0 0 0 0 0 0 0 0 0 0 0 0 0 0 0 0 1 1 1 2 2 2 2 3 3 2 1 0 0 0 0 0 0 0 0 0 0 0 0 0
0 0 2 0 0 0 0 0 0 1 0 0 1 2 1 1 1 0 1 1 2 2 2 1 1 1 0 0 0 0 0 0 0 0 0 0 0 0 0 0 0 0 0
0 0 0 0 3 0 0 0 1 1 1 2 1 0 0 0 1 1 1 2 2 0 0 0 0 0 0 0 0 0 0 0 0 0 0 0 0 0 0 0 0 0 0
0 0 0 0 0 0 1 1 1 1 2 1 0 0 0 0 1 1 1 0 0 0 0 0 0 0 0 0 0 0 0 0 0 0 0 0 0 0 0 0 0 0 0
0 0 0 0 0 0 2 2 2 0 0 0 0 0 0 0 0 0 0 0 0 0 0 0 0 0 0 0 0 0 0 0 0 0 0 0 0 0 0 0 0 0 0
0 0 1 0 1 0 1 2 0 0 0 0 0 0 0 0 0 0 0 0 0 0 0 0 0 0 0 0 0 0 0 0 0 0 0 0 0 0 0 0 0 0 0
0 2 1 5 1 0 1 2 0 0 0 0 0 0 0 0 0 0 0 0 0 0 0 0 0 0 0 0 0 0 0 0 0 0 0 0 0 0 0 0 0 0 0
0 1 7 29 6 2 2 1 0 0 0 0 0 0 0 0 0 0 0 0 0 0 0 0 0 0 0 0 0 0 0 0 0 0 0 0 0 0 0 0 0 0 0

GFSGL_con_mlcape_183.txt.gz
CAPE
441 662 628 638 843 917 978 908 1007 862 695 736 1137 1202 1147 1024 1349 1395 1287 1350 1044 1077 1318 1159 1296 1373 680 918 1120 1059 897 781 441 562 857 1108 1086 1284 772 937 242 305 7
840 716 791 910 965 959 1004 1088 1081 989 1011 809 989 964 1153 735 1153 1363 914 970 955 851 1281 1482 1321 1431 1016 615 563 530 714 953 715 688 629 886 866 911 683 265 112 55 30
706 930 954 959 1070 1145 1318 1321 1270 1240 1144 1110 1140 939 829 740 705 872 1100 1254 1143 981 1113 1299 1291 1282 976 646 541 873 688 521 517 812 633 864 980 623 249 135 63 4 5
345 493 524 672 808 1001 1405 1326 1320 1254 1190 1172 1091 1006 1027 919 666 494 510 774 979 1058 1078 1345 1326 1137 1128 1195 898 816 546 705 450 467 754 908 795 911 843 214 9 4 2
325 422 479 560 621 633 677 777 952 1050 945 900 1200 1206 988 874 763 623 444 317 391 285 907 1204 1389 1372 1157 1038 1013 991 688 571 440 551 604 821 927 796 556 357 184 1 3
304 294 489 388 295 197 379 315 230 211 463 1006 1091 1039 1144 944 491 163 162 216 289 379 562 1119 1174 1069 811 489 437 379 672 741 678 596 681 579 924 895 920 505 148 1 0
550 551 450 372 397 317 214 123 140 147 223 157 436 743 946 947 459 161 77 291 577 660 927 800 878 757 821 1135 979 517 413 451 507 818 657 576 715 761 892 773 245 103 80
909 889 798 685 582 470 281 208 150 191 153 190 195 226 497 888 558 245 166 329 635 632 683 875 1061 1050 1231 1109 1134 1242 1281 1361 909 580 861 1016 776 1125 1031 769 623 127 13
634 698 666 451 359 360 357 379 347 275 169 214 204 145 115 155 53 0 0 3 221 672 985 1142 1208 1087 1012 754 884 1097 1206 1227 505 200 136 184 360 344 528 460 416 45 0
439 297 170 175 162 229 263 145 145 127 81 92 16 22 8 31 45 3 35 272 560 746 943 990 743 725 854 634 716 997 1193 1169 1206 245 9 3 0 18 46 313 383 117 45
457 286 275 336 245 248 188 113 101 179 225 243 244 300 345 281 264 100 100 480 572 793 833 845 1124 787 326 202 239 888 991 1009 836 485 100 0 0 0 4 16 128 197 55
732 554 510 491 244 152 52 117 270 293 160 139 103 142 229 418 165 54 105 70 228 321 456 583 706 397 228 132 23 52 116 355 239 20 0 0 0 0 2 1 0 1 2
858 789 594 364 150 121 67 135 142 209 139 5 13 30 124 194 49 0 0 0 0 1 4 5 2 0 3 1 2 10 0 6 8 5 1 3 6 1 1 1 1 0 0
679 640 439 166 57 87 11 0 2 4 14 34 8 2 7 16 56 24 2 1 1 0 0 0 0 0 0 0 0 0 0 3 2 2 5 5 2 3 3 2 0 1 0
564 415 186 17 0 0 0 0 0 0 0 0 0 0 0 0 2 0 0 1 2 1 0 0 0 0 0 0 0 1 1 5 1 2 5 4 3 4 4 2 1 1 0
458 192 9 0 0 1 1 0 0 0 0 0 0 0 0 0 0 0 0 0 0 0 0 0 0 0 0 0 1 2 2 0 3 4 0 0 0 1 1 0 0 0 0
61 16 24 0 0 0 5 3 8 0 0 0 0 0 0 0 0 0 0 0 0 0 0 1 0 1 1 1 1 1 1 2 1 3 4 3 3 1 0 0 0 0 0
4 0 0 0 0 1 14 16 12 4 1 1 0 0 0 0 0 0 0 0 0 0 1 1 1 1 1 2 3 3 3 3 2 3 2 2 1 1 1 0 0 0 0
0 1 2 1 5 5 3 1 0 0 0 0 0 0 0 0 0 0 0 4 2 2 2 2 2 2 2 2 2 2 1 1 1 1 0 0 0 0 0 0 0 0 0
0 0 0 2 6 1 1 0 0 1 3 2 1 2 2 2 2 2 2 2 2 2 3 3 3 3 3 2 1 0 0 0 0 0 0 0 0 0 0 0 0 0 0
0 0 0 6 4 1 2 0 0 0 2 3 2 0 0 2 2 2 2 2 1 1 1 1 1 0 0 0 0 0 0 0 0 0 0 0 0 0 0 0 0 0 0
0 0 0 2 4 2 1 2 1 2 2 3 1 0 0 1 2 2 2 2 1 0 0 0 0 0 0 0 0 0 0 0 0 0 0 0 0 0 0 0 0 0 0
0 0 0 0 2 2 0 3 2 2 2 2 1 2 1 2 3 2 3 0 0 0 0 0 0 0 0 0 0 0 0 0 0 0 0 0 0 0 0 0 0 0 0
0 0 2 0 4 4 5 2 1 1 1 0 0 0 5 5 4 2 1 0 0 0 0 0 0 0 0 0 0 0 0 0 0 0 0 0 0 0 0 0 0 0 0
0 0 2 2 2 4 3 2 1 0 0 4 2 0 0 0 0 0 0 0 0 0 0 0 0 0 0 0 0 0 0 0 0 0 0 0 0 0 0 0 0 0 0
1 2 4 7 12 13 4 1 1 1 0 8 0 0 0 0 0 0 0 0 0 0 0 0 0 0 0 0 0 0 0 0 0 0 0 0 0 0 0 0 0 0 0